East Swanzey, NH

9:41 AM EST on February 12, 2016 (GMT -0500)
Dillant-Hopkins

Weather History for KEEN - June, 2013

Change the Weather History Date:

Wednesday, June 19, 2013

  Actual Average Record
Temperature  
Mean Temperature 57 °F -  
Max Temperature 68 °F 81 °F - (-1)
Min Temperature 46 °F 55 °F - (-1)
Degree Days  
Heating Degree Days 8    
Growing Degree Days 7 (Base 50)    
Moisture  
Dew Point 45 °F    
Average Humidity 69    
Maximum Humidity 88    
Minimum Humidity 35    
Precipitation  
Precipitation 0.00 in - - ()
Sea Level Pressure  
Sea Level Pressure 30.00 in    
Wind  
Wind Speed 3 mph (NNW)    
Max Wind Speed 15 mph    
Max Gust Speed 20 mph    
Visibility 7 miles    
Events      
Averages and records for this station are not official NWS values.
T = Trace of Precipitation, MM = Missing Value Source: NWS Daily Summary

Daily Weather History Graph

Daily Weather History Graph

Search for Another Location

Airport or City:

Trip Planner

Search our weather history database for the weather conditions in past years. The results will help you decide how hot, cold, wet, or windy it might be!

Date:

Astronomy

Jun. 19, 2013 Rise Set
Actual Time 5:10 AM EDT 8:31 PM EDT
Civil Twilight 4:34 AM EDT 9:06 PM EDT
Nautical Twilight 3:48 AM EDT 9:52 PM EDT
Astronomical Twilight 2:52 AM EDT 10:48 PM EDT
Moon 4:16 PM EDT (6/19) 1:57 AM EDT (6/19)
Length of Visible Light 16h 31m
Length of Day
15h 20m
Waxing Gibbous, 80% of the Moon is Illuminated
Jun 19
Waxing Gibbous
Jun 23
Full
Jun 30
Last Quarter
Jul 8
New
Jul 15
First Quarter

Hourly Weather History & Observations

Time (EDT) Temp. Windchill Dew Point Humidity Pressure Visibility Wind Dir Wind Speed Gust Speed Precip Events Conditions
12:15 AM 53.6 °F - 48.2 °F 82% 29.95 in 5.0 mi Calm Calm - N/A   Mostly Cloudy
12:35 AM 53.6 °F - 48.2 °F 82% 29.95 in 8.0 mi Calm Calm - 0.01 in   Overcast
1:15 AM 53.6 °F - 48.2 °F 82% 29.95 in 4.0 mi Calm Calm - N/A   Mostly Cloudy
1:35 AM 53.6 °F - 48.2 °F 82% 29.95 in 10.0 mi Calm Calm - N/A   Mostly Cloudy
1:55 AM 51.8 °F - 46.4 °F 82% 29.95 in 1.5 mi Calm Calm - N/A   Mostly Cloudy
2:15 AM 51.8 °F - 48.2 °F 88% 29.95 in 0.2 mi Calm Calm - N/A   Overcast
2:35 AM 51.8 °F - 46.4 °F 82% 29.94 in 0.2 mi Calm Calm - N/A   Overcast
2:55 AM 51.8 °F - 46.4 °F 82% 29.95 in 0.5 mi Calm Calm - N/A   Overcast
3:15 AM 51.8 °F - 46.4 °F 82% 29.95 in 0.2 mi Calm Calm - N/A   Overcast
3:35 AM 51.8 °F - 46.4 °F 82% 29.95 in 0.2 mi Calm Calm - N/A   Overcast
4:15 AM 48.2 °F - 44.6 °F 87% 29.96 in 8.0 mi Calm Calm - N/A   Mostly Cloudy
4:35 AM 48.2 °F - 44.6 °F 87% 29.97 in 9.0 mi Calm Calm - N/A   Clear
4:55 AM 48.2 °F - 42.8 °F 82% 29.97 in 5.0 mi Calm Calm - N/A   Clear
5:15 AM 48.2 °F - 42.8 °F 82% 29.98 in 2.0 mi Calm Calm - N/A   Overcast
5:35 AM 46.4 °F - 42.8 °F 87% 29.98 in 0.2 mi Calm Calm - N/A   Overcast
5:55 AM 48.2 °F - 42.8 °F 82% 29.98 in 0.2 mi Calm Calm - N/A   Overcast
6:15 AM 46.4 °F 44.3 °F 42.8 °F 87% 29.99 in 0.2 mi South 4.6 mph - N/A   Overcast
6:35 AM 48.2 °F - 42.8 °F 82% 29.99 in 10.0 mi Calm Calm - N/A   Partly Cloudy
7:15 AM 51.8 °F - 46.4 °F 82% 30.00 in 10.0 mi Calm Calm - N/A   Clear
7:35 AM 53.6 °F - 46.4 °F 77% 30.01 in 10.0 mi Calm Calm - N/A   Clear
7:55 AM 55.4 °F - 46.4 °F 72% 30.01 in 10.0 mi NE 3.5 mph - N/A   Clear
8:15 AM 57.2 °F - 46.4 °F 67% 30.02 in 10.0 mi North 9.2 mph - N/A   Clear
8:35 AM 57.2 °F - 46.4 °F 67% 30.02 in 10.0 mi North 6.9 mph - N/A   Clear
8:55 AM 60.8 °F - 46.4 °F 59% 30.03 in 10.0 mi North 8.1 mph - N/A   Clear
9:15 AM 60.8 °F - 46.4 °F 59% 30.03 in 10.0 mi North 6.9 mph - N/A   Clear
9:35 AM 62.6 °F - 46.4 °F 55% 30.03 in 10.0 mi NNW 8.1 mph - N/A   Clear
9:55 AM 64.4 °F - 46.4 °F 52% 30.03 in 10.0 mi North 12.7 mph - N/A   Clear
10:15 AM 64.4 °F - 44.6 °F 49% 30.03 in 10.0 mi NNW 13.8 mph - N/A   Clear
10:36 AM 66.2 °F - 44.6 °F 46% 30.04 in 10.0 mi North 12.7 mph 17.3 mph N/A   Clear
10:55 AM 66.2 °F - 42.8 °F 43% 30.04 in 10.0 mi NNW 11.5 mph - N/A   Clear
11:15 AM 66.2 °F - 42.8 °F 43% 30.04 in 10.0 mi North 15.0 mph - N/A   Clear
11:35 AM 66.2 °F - 42.8 °F 43% 30.05 in 10.0 mi NNW 12.7 mph 19.6 mph N/A   Clear
11:55 AM 66.2 °F - 42.8 °F 43% 30.04 in 10.0 mi NNW 9.2 mph - N/A   Clear
12:15 PM 68.0 °F - 42.8 °F 40% 30.05 in 10.0 mi NNW 9.2 mph - N/A   Clear
12:35 PM 68.0 °F - 39.2 °F 35% 30.05 in 10.0 mi NNW 9.2 mph - N/A   Clear
12:55 PM 68.0 °F - 39.2 °F 35% 30.05 in 10.0 mi NW 8.1 mph 17.3 mph N/A   Clear